Flag for Germany Weather past 2 weeks in Ibbenbüren, North Rhine-Westphalia, Germany

Now
36 °F

Drizzle. Fog.


Feels Like: 31 °F
Forecast: 37 / 42 °F
Wind: 6 mph from South

Location: Muenster / Osnabrueck

Current Time: Jan 26, 2015 at 12:07:59 AM

Latest Report: Jan 25, 2015 at 11:20 PM


Visibility: 1 mi

Pressure: 30.30 "Hg

Humidity: 100%

Dew point: 36 °F

Location of IbbenbürenLocation

Historic Weather in Ibbenbüren — Graph

°F

Ibbenbüren temperature yesterday

Maximum temperature yesterday: 37 °F (at 12:20 PM)
Minimum temperature yesterday: 27 °F (at 6:20 AM)
Average temperature yesterday: 34 °F

Past Weeks' High & Low Weather Summary

 TemperatureHumidityPressure
High52 °F (Jan 13, 6:20 AM)100% (Jan 17, 2:50 AM)30.36 "Hg (Jan 17, 2:50 AM)
Low23 °F (Jan 21, 1:50 AM)65% (Jan 21, 1:50 PM)29.39 "Hg (Jan 15, 3:50 PM)
Average37 °F87%29.91 "Hg
* Reported Jan 10 11:20 PM — Jan 25 10:20 PM, Ibbenbüren, Weather by CustomWeather, © 2014

Note: Actual official high and low records may vary slightly from our data, if they occured in-between our weather recording intervals... More about our weather records

Advertising

Ibbenbüren weather history for previous 24 hours

 ConditionsComfort  
Time TempWeatherWind HumidityBarometerVisibility
10:20 PM
Jan 25
36 °FDrizzle. Fog.3 mph100%30.30 "Hg1 mi
9:50 PM36 °FDrizzle. Fog.5 mph100%30.30 "Hg1 mi
9:20 PM36 °FFog.5 mph100%30.33 "Hg1 mi
8:50 PM36 °FDrizzle. Fog.6 mph100%30.33 "Hg1 mi
8:20 PM36 °FFog.6 mph100%30.33 "Hg1 mi
7:50 PM36 °FFog.6 mph100%30.33 "Hg1 mi
7:20 PM36 °FDrizzle. Fog.5 mph100%30.33 "Hg1 mi
6:50 PM36 °FDrizzle. Fog.5 mph100%30.36 "Hg1 mi
6:20 PM36 °FDrizzle. Fog.5 mph100%30.36 "Hg1 mi
5:50 PM37 °FDrizzle. Fog.5 mph100%30.33 "Hg1 mi
5:20 PM37 °FDrizzle. Fog.6 mph100%30.33 "Hg1 mi
4:50 PM37 °FDrizzle. Fog.5 mph100%30.33 "Hg2 mi
4:20 PM37 °FDrizzle. Fog.6 mph93%30.33 "Hg2 mi
3:50 PM37 °FDrizzle. Partly sunny.5 mph93%30.33 "Hg5 mi
3:20 PM37 °FDrizzle. Partly sunny.6 mph93%30.33 "Hg5 mi
2:50 PM37 °FPartly sunny.6 mph93%30.33 "Hg6 mi
2:20 PM37 °FPartly sunny.6 mph93%30.33 "HgN/A
1:50 PM37 °FPartly sunny.5 mph93%30.33 "HgN/A
1:20 PM37 °FPartly sunny.7 mph93%30.33 "HgN/A
12:50 PM37 °FPartly sunny.6 mph93%30.36 "HgN/A
12:20 PM37 °FPartly sunny.5 mph93%30.36 "HgN/A
11:50 AM36 °FBroken clouds.3 mph100%30.36 "Hg6 mi
11:20 AM36 °FClear.2 mph100%30.36 "Hg6 mi
10:50 AM36 °FClear.5 mph100%30.36 "Hg6 mi
10:20 AM34 °FClear.2 mph100%30.36 "Hg6 mi
9:50 AM32 °FPartly sunny.3 mph100%30.36 "Hg6 mi
9:20 AM30 °FPartly sunny.3 mph100%30.36 "Hg6 mi
8:50 AM30 °FChilly.3 mph100%30.36 "Hg5 mi
8:20 AM28 °FChilly.2 mph100%30.36 "Hg5 mi
7:50 AM30 °FChilly.1 mph100%30.33 "Hg5 mi
7:20 AM28 °FChilly.1 mph100%30.33 "Hg5 mi
6:50 AM28 °FChilly.1 mph100%30.33 "Hg2 mi
6:20 AM27 °FChilly.2 mph100%30.33 "Hg2 mi
5:50 AM28 °FChilly.2 mph100%30.33 "Hg5 mi
5:20 AM30 °FChilly.2 mph100%30.33 "Hg6 mi
4:20 AM30 °FPassing clouds.1 mph100%30.30 "HgN/A
3:50 AM30 °FPassing clouds.6 mph100%30.30 "HgN/A
3:20 AM30 °FPassing clouds.5 mph100%30.30 "HgN/A
2:50 AM30 °FPassing clouds.5 mph100%30.30 "HgN/A
2:20 AM32 °FPassing clouds.6 mph100%30.30 "HgN/A
1:50 AM32 °FPartly cloudy.7 mph100%30.30 "HgN/A
1:20 AM32 °FScattered showers. Passing clouds.7 mph100%30.27 "HgN/A
12:50 AM30 °FSnow flurries. Passing clouds.5 mph100%30.27 "HgN/A
12:20 AM30 °FPassing clouds.5 mph100%30.27 "HgN/A
Weather by CustomWeather, © 2014

See weather overviewHow to use our weather pages